Weather History for Greenwood, MS

Change the Weather History Date:

Wednesday, May 13, 2009

  Actual Average Record
Temperature  
Mean Temperature 76 °F 71 °F  
Max Temperature 87 °F 82 °F 94 °F (1962)
Min Temperature 65 °F 60 °F 44 °F (1960)
Degree Days  
Heating Degree Days 0 1  
Month to date heating degree days 1 13  
Since 1 July heating degree days 2030 2684  
Cooling Degree Days 11 7  
Month to date cooling degree days 91 69  
Year to date cooling degree days 223 171  
Growing Degree Days 26 (Base 50)    
Moisture  
Dew Point 69 °F    
Average Humidity 72    
Maximum Humidity 93    
Minimum Humidity 50    
Precipitation  
Precipitation 0.00 in 0.17 in 1.69 in (1993)
Month to date precipitation 8.65 2.20  
Year to date precipitation 22.16 20.58  
Sea Level Pressure  
Sea Level Pressure 29.98 in    
Wind  
Wind Speed 13 mph (SSE)    
Max Wind Speed 22 mph    
Max Gust Speed 28 mph    
Visibility 8 miles    
Events      
T = Trace of Precipitation, MM = Missing Value Source: NWS Daily Summary

Daily Weather History Graph

Daily Weather History Graph

Search for Another Location

Airport:

Trip Planner

Search our weather history database for the weather conditions in past years. The results will help you decide how hot, cold, wet, or windy it might be!

Date:

Astronomy

May. 13, 2009 Rise Set
Actual Time 6:01 AM CDT 7:52 PM CDT
Civil Twilight 5:33 AM CDT 8:19 PM CDT
Nautical Twilight 5:00 AM CDT 8:53 PM CDT
Astronomical Twilight 4:25 AM CDT 9:28 PM CDT
Moon No Moon Rise 9:18 AM CDT (5/13)
Length of Visible Light 14h 45m
Length of Day
13h 51m
Waning Gibbous, 82% of the Moon is Illuminated
May 13
Waning Gibbous
May 17
Last Quarter
May 24
New
May 30
First Quarter
Jun 7
Full

Hourly Weather History & Observations

Time (CDT) Temp. Heat Index Dew Point Humidity Pressure Visibility Wind Dir Wind Speed Gust Speed Precip Events Conditions
12:53 AM 66.0 °F - 63.0 °F 90% 29.99 in 10.0 mi ENE 5.8 mph - N/A   Partly Cloudy
1:53 AM 64.9 °F - 63.0 °F 93% 29.96 in 10.0 mi SSE 6.9 mph - N/A   Clear
2:23 AM 66.2 °F - 64.4 °F 94% 29.97 in 10.0 mi East 3.5 mph - N/A   Partly Cloudy
2:53 AM 66.9 °F - 64.9 °F 93% 29.98 in 9.0 mi ESE 10.4 mph - N/A   Mostly Cloudy
3:30 AM 69.8 °F - 66.2 °F 88% 29.96 in 9.0 mi SSE 15.0 mph 20.7 mph N/A   Partly Cloudy
3:53 AM 70.0 °F - 66.9 °F 90% 29.95 in 8.0 mi SSE 12.7 mph - N/A   Partly Cloudy
4:34 AM 71.6 °F - 66.2 °F 83% 29.97 in 8.0 mi South 9.2 mph - N/A   Mostly Cloudy
4:53 AM 71.1 °F - 66.9 °F 87% 29.96 in 7.0 mi South 8.1 mph - N/A   Overcast
5:32 AM 71.6 °F - 68.0 °F 88% 29.98 in 7.0 mi SSE 9.2 mph - N/A   Scattered Clouds
5:53 AM 71.1 °F - 68.0 °F 90% 29.99 in 7.0 mi South 10.4 mph - N/A   Mostly Cloudy
6:14 AM 71.6 °F - 68.0 °F 88% 30.00 in 6.0 mi South 6.9 mph - N/A   Overcast
6:23 AM 71.6 °F - 68.0 °F 88% 30.00 in 5.0 mi South 9.2 mph - N/A   Overcast
6:33 AM 71.6 °F - 68.0 °F 88% 30.01 in 5.0 mi South 8.1 mph - N/A   Mostly Cloudy
6:53 AM 72.0 °F - 69.1 °F 91% 30.01 in 5.0 mi South 9.2 mph - N/A   Overcast
7:38 AM 73.4 °F - 69.8 °F 88% 30.03 in 6.0 mi South 8.1 mph - N/A   Overcast
7:53 AM 73.0 °F - 69.1 °F 87% 30.02 in 6.0 mi South 9.2 mph - N/A   Mostly Cloudy
8:53 AM 75.9 °F - 70.0 °F 82% 30.03 in 6.0 mi South 12.7 mph - N/A   Haze
9:53 AM 79.0 °F - 71.1 °F 77% 30.02 in 9.0 mi South 15.0 mph - N/A   Scattered Clouds
10:49 AM 80.6 °F 84.6 °F 71.6 °F 74% 30.02 in 9.0 mi South 18.4 mph - N/A   Mostly Cloudy
10:53 AM 80.1 °F 83.6 °F 71.1 °F 74% 30.01 in 9.0 mi South 19.6 mph 26.5 mph N/A   Mostly Cloudy
11:46 AM 82.4 °F 87.2 °F 71.6 °F 70% 30.01 in 9.0 mi South 17.3 mph 21.9 mph N/A   Mostly Cloudy
11:53 AM 82.9 °F 88.0 °F 72.0 °F 69% 30.00 in 9.0 mi South 16.1 mph - N/A   Mostly Cloudy
12:00 PM 82.4 °F 87.2 °F 71.6 °F 70% 30.01 in 9.0 mi South 16.1 mph - N/A   Mostly Cloudy
12:53 PM 84.0 °F 89.0 °F 71.1 °F 65% 29.98 in 10.0 mi South 17.3 mph 23.0 mph N/A   Scattered Clouds
1:53 PM 86.0 °F 90.7 °F 70.0 °F 59% 29.96 in 10.0 mi South 18.4 mph 27.6 mph N/A   Partly Cloudy
2:53 PM 87.1 °F 89.9 °F 66.9 °F 51% 29.95 in 10.0 mi SSE 19.6 mph - N/A   Partly Cloudy
3:53 PM 87.1 °F 89.2 °F 66.0 °F 49% 29.94 in 10.0 mi South 19.6 mph - N/A   Partly Cloudy
4:53 PM 86.0 °F 89.4 °F 68.0 °F 55% 29.94 in 10.0 mi South 12.7 mph - N/A   Scattered Clouds
5:53 PM 84.0 °F 87.0 °F 68.0 °F 58% 29.95 in 10.0 mi South 8.1 mph - N/A   Partly Cloudy
6:53 PM 82.9 °F 87.5 °F 71.1 °F 67% 29.94 in 10.0 mi South 5.8 mph - N/A   Clear
7:53 PM 80.1 °F 83.2 °F 70.0 °F 71% 29.96 in 10.0 mi SSE 4.6 mph - N/A   Clear
8:53 PM 79.0 °F - 69.1 °F 72% 29.96 in 10.0 mi SE 8.1 mph - N/A   Clear
9:53 PM 78.1 °F - 70.0 °F 76% 29.98 in 10.0 mi SSE 12.7 mph - N/A   Clear
10:53 PM 77.0 °F - 70.0 °F 79% 29.97 in 10.0 mi SSE 12.7 mph - N/A   Clear
11:53 PM 75.9 °F - 70.0 °F 82% 29.98 in 9.0 mi SSE 15.0 mph - N/A   Clear